IBE06ZA LIPZ-LEMD

Flight info

Callsign IBE06ZA
Flight time N/A
Altitude 33000
Route CHI DCT GEN DCT KOLON DCT GANGU DCT PADKO DCT DIVKO DCT NILDU DCT NENDA DCT BCN DCT ANTON DCT XIKEN DCT OSLAP DCT SALAS DCT RAMON DCT NEXAS DCT DISVU DCT ADUXO
Aircraft A321/M-SDE3FGHIRWY/LB1

Departure

Time N/A
Airport Venice Marco Polo Airport (LIPZ)

Arrival

Time 2026-05-01 14:08
Airport Adolfo Suárez Madrid–Barajas Airport (LEMD)
Time Latitude Longitude Altitude Speed Heading
2026-05-01 13:34 41.00748 -0.29052 35185 ft 434 kts 252°
2026-05-01 13:35 40.97743 -0.40284 35177 ft 434 kts 249°
2026-05-01 13:36 40.94678 -0.51573 35175 ft 435 kts 250°
2026-05-01 13:36 40.91603 -0.62866 35188 ft 435 kts 250°
2026-05-01 13:37 40.89544 -0.70383 35184 ft 435 kts 250°
2026-05-01 13:37 40.87482 -0.77882 35187 ft 434 kts 250°
2026-05-01 13:38 40.84391 -0.89132 35187 ft 434 kts 251°
2026-05-01 13:39 40.82327 -0.96618 35191 ft 434 kts 251°
2026-05-01 13:39 40.80244 -1.04081 35192 ft 433 kts 251°
2026-05-01 13:40 40.78160 -1.11540 35195 ft 433 kts 251°
2026-05-01 13:40 40.76077 -1.18990 35195 ft 433 kts 251°
2026-05-01 13:41 40.74003 -1.26375 35203 ft 432 kts 251°
2026-05-01 13:41 40.71922 -1.33790 35202 ft 431 kts 251°
2026-05-01 13:42 40.69849 -1.41184 35202 ft 430 kts 251°
2026-05-01 13:42 40.67766 -1.48578 35193 ft 430 kts 251°
2026-05-01 13:43 40.65674 -1.55956 35191 ft 430 kts 251°
2026-05-01 13:43 40.63578 -1.63322 35183 ft 430 kts 251°
2026-05-01 13:44 40.61482 -1.70684 35194 ft 429 kts 251°
2026-05-01 13:44 40.59391 -1.78045 35130 ft 430 kts 251°
2026-05-01 13:44 40.58342 -1.81723 34666 ft 430 kts 251°
2026-05-01 13:45 40.57285 -1.85407 33787 ft 433 kts 251°
2026-05-01 13:45 40.56218 -1.89119 32947 ft 434 kts 251°
2026-05-01 13:45 40.55148 -1.92840 32086 ft 436 kts 251°
2026-05-01 13:45 40.54088 -1.96524 31293 ft 437 kts 251°
2026-05-01 13:46 40.52997 -2.00314 30417 ft 439 kts 250°
2026-05-01 13:46 40.51924 -2.04037 29375 ft 443 kts 250°
2026-05-01 13:46 40.50830 -2.07828 28408 ft 444 kts 250°
2026-05-01 13:46 40.49732 -2.11614 27541 ft 443 kts 250°
2026-05-01 13:47 40.48648 -2.15340 27333 ft 428 kts 250°
2026-05-01 13:47 40.47598 -2.18940 27110 ft 416 kts 249°
2026-05-01 13:47 40.46579 -2.22437 26846 ft 405 kts 249°
2026-05-01 13:47 40.45624 -2.25886 26588 ft 400 kts 255°
2026-05-01 13:48 40.45214 -2.29470 26338 ft 397 kts 269°
2026-05-01 13:48 40.45517 -2.33063 26090 ft 397 kts 283°
2026-05-01 13:48 40.46510 -2.36443 25836 ft 399 kts 297°
2026-05-01 13:48 40.47857 -2.39631 25323 ft 399 kts 297°
2026-05-01 13:49 40.49209 -2.42800 24725 ft 397 kts 297°
2026-05-01 13:49 40.50554 -2.45952 24135 ft 394 kts 297°
2026-05-01 13:49 40.51886 -2.49082 23499 ft 392 kts 297°
2026-05-01 13:49 40.53205 -2.52198 22911 ft 388 kts 297°
2026-05-01 13:50 40.54512 -2.55278 22340 ft 384 kts 297°
2026-05-01 13:50 40.55805 -2.58328 21772 ft 380 kts 297°
2026-05-01 13:50 40.57085 -2.61352 21205 ft 377 kts 297°
2026-05-01 13:50 40.58351 -2.64347 20658 ft 373 kts 297°
2026-05-01 13:51 40.59608 -2.67320 20106 ft 371 kts 297°
2026-05-01 13:51 40.60856 -2.70278 19556 ft 369 kts 297°
2026-05-01 13:51 40.62093 -2.73223 18996 ft 367 kts 297°
2026-05-01 13:51 40.63319 -2.76151 18584 ft 361 kts 297°
2026-05-01 13:52 40.64520 -2.79021 18458 ft 356 kts 297°
2026-05-01 13:52 40.65718 -2.81879 18291 ft 356 kts 298°
2026-05-01 13:52 40.66955 -2.84715 17755 ft 357 kts 299°
2026-05-01 13:52 40.68234 -2.87503 17246 ft 354 kts 300°
2026-05-01 13:53 40.69508 -2.90212 16759 ft 351 kts 300°
2026-05-01 13:53 40.72089 -2.95678 15781 ft 347 kts 300°
2026-05-01 13:53 40.73329 -2.98339 15309 ft 345 kts 300°
2026-05-01 13:54 40.74575 -3.01038 14832 ft 344 kts 299°
2026-05-01 13:54 40.75811 -3.03730 14351 ft 342 kts 299°
2026-05-01 13:54 40.77041 -3.06412 13869 ft 341 kts 299°
2026-05-01 13:54 40.78269 -3.09095 13318 ft 339 kts 299°
2026-05-01 13:55 40.79460 -3.11689 13184 ft 321 kts 299°
2026-05-01 13:55 40.80589 -3.14140 12990 ft 306 kts 298°
2026-05-01 13:55 40.81680 -3.16517 12553 ft 300 kts 298°
2026-05-01 13:55 40.82750 -3.18866 12042 ft 297 kts 298°
2026-05-01 13:56 40.83812 -3.21198 11555 ft 295 kts 298°
2026-05-01 13:56 40.84867 -3.23517 11060 ft 294 kts 298°
2026-05-01 13:56 40.85917 -3.25825 10591 ft 292 kts 298°
2026-05-01 13:56 40.86963 -3.28117 10148 ft 290 kts 298°
2026-05-01 13:57 40.88004 -3.30398 9652 ft 289 kts 298°
2026-05-01 13:57 40.88691 -3.31900 9373 ft 289 kts 298°
2026-05-01 13:57 40.90069 -3.34923 8872 ft 286 kts 298°
2026-05-01 13:57 40.91075 -3.37185 8494 ft 283 kts 293°
2026-05-01 13:58 40.91684 -3.39627 8142 ft 278 kts 278°
2026-05-01 13:58 40.92076 -3.42101 7974 ft 270 kts 279°
2026-05-01 13:58 40.92327 -3.43676 7896 ft 258 kts 277°
2026-05-01 13:58 40.92348 -3.46635 7703 ft 232 kts 257°
2026-05-01 13:59 40.92069 -3.48714 7277 ft 229 kts 256°
2026-05-01 13:59 40.91565 -3.50677 6794 ft 224 kts 236°
2026-05-01 13:59 40.90539 -3.52152 6547 ft 212 kts 213°
2026-05-01 13:59 40.89264 -3.53032 6283 ft 206 kts 203°
2026-05-01 14:00 40.87966 -3.53815 5949 ft 203 kts 203°
2026-05-01 14:00 40.87120 -3.54325 5848 ft 193 kts 201°
2026-05-01 14:00 40.85845 -3.54750 5612 ft 187 kts 189°
2026-05-01 14:00 40.84581 -3.55036 5217 ft 188 kts 189°
2026-05-01 14:01 40.83297 -3.55328 5031 ft 186 kts 189°
2026-05-01 14:01 40.82018 -3.55631 5047 ft 188 kts 193°
2026-05-01 14:01 40.80726 -3.55934 5055 ft 189 kts 186°
2026-05-01 14:01 40.79415 -3.56039 5054 ft 191 kts 182°
2026-05-01 14:02 40.78089 -3.56063 5061 ft 190 kts 181°
2026-05-01 14:02 40.76771 -3.56063 5057 ft 189 kts 180°
2026-05-01 14:02 40.75452 -3.56058 5057 ft 190 kts 180°
2026-05-01 14:02 40.74127 -3.56050 5055 ft 190 kts 180°
2026-05-01 14:03 40.72804 -3.56044 5045 ft 189 kts 180°
2026-05-01 14:03 40.71499 -3.56036 5048 ft 186 kts 180°
2026-05-01 14:03 40.70206 -3.56030 5052 ft 185 kts 180°
2026-05-01 14:03 40.68925 -3.56022 5006 ft 184 kts 180°
2026-05-01 14:04 40.67642 -3.56015 4831 ft 184 kts 181°
2026-05-01 14:04 40.66362 -3.56008 4598 ft 184 kts 181°
2026-05-01 14:04 40.65085 -3.56001 4336 ft 183 kts 180°
2026-05-01 14:04 40.63817 -3.55994 4105 ft 182 kts 181°
2026-05-01 14:05 40.62565 -3.55987 3883 ft 174 kts 181°
2026-05-01 14:05 40.61393 -3.55982 3648 ft 164 kts 180°
2026-05-01 14:05 40.60274 -3.55976 3445 ft 160 kts 180°
2026-05-01 14:05 40.59202 -3.55969 3236 ft 151 kts 180°
2026-05-01 14:06 40.58160 -3.55964 3034 ft 149 kts 181°
2026-05-01 14:06 40.57128 -3.55958 2824 ft 148 kts 181°
2026-05-01 14:06 40.56102 -3.55966 2671 ft 147 kts 182°
2026-05-01 14:06 40.55076 -3.55961 2467 ft 146 kts 180°
2026-05-01 14:07 40.54067 -3.55965 2235 ft 145 kts 179°
2026-05-01 14:07 40.53063 -3.55952 2041 ft 144 kts 180°
2026-05-01 14:07 40.52084 -3.55942 1958 ft 133 kts 179°
2026-05-01 14:08 40.50780 -3.55926 1964 ft 39 kts 180°
2026-05-01 14:08 40.50533 -3.55941 1964 ft 30 kts 192°
2026-05-01 14:08 40.50371 -3.56032 1963 ft 23 kts 210°
2026-05-01 14:08 40.50241 -3.56133 1958 ft 16 kts 215°
2026-05-01 14:09 40.50201 -3.56245 1961 ft 12 kts 268°
2026-05-01 14:09 40.50202 -3.56339 1964 ft 8 kts 270°
2026-05-01 14:09 40.50202 -3.56399 1965 ft 5 kts 268°
2026-05-01 14:09 40.50192 -3.56442 1966 ft 10 kts 241°
2026-05-01 14:10 40.50132 -3.56551 1974 ft 15 kts 234°
2026-05-01 14:10 40.50112 -3.56669 1971 ft 12 kts 270°
2026-05-01 14:10 40.50113 -3.56778 1971 ft 12 kts 270°
2026-05-01 14:10 40.50112 -3.56880 1971 ft 11 kts 269°
2026-05-01 14:11 40.50111 -3.56971 1972 ft 9 kts 268°
2026-05-01 14:11 40.50050 -3.57119 1980 ft 18 kts 187°
2026-05-01 14:11 40.49932 -3.57120 1987 ft 14 kts 180°
2026-05-01 14:12 40.49851 -3.57120 1987 ft 12 kts 179°
2026-05-01 14:12 40.49720 -3.57120 1985 ft 22 kts 179°
2026-05-01 14:12 40.49575 -3.57118 1982 ft 21 kts 180°
2026-05-01 14:12 40.49427 -3.57117 1978 ft 18 kts 180°
2026-05-01 14:13 40.49314 -3.57103 1983 ft 14 kts 150°
2026-05-01 14:13 40.49327 -3.57009 1978 ft 14 kts 19°
2026-05-01 14:13 40.49416 -3.57004 1975 ft 9 kts 359°
2026-05-01 14:13 40.49455 -3.56968 1976 ft 8 kts 68°
2026-05-01 14:14 40.49468 -3.56894 1972 ft 8 kts 89°
2026-05-01 14:14 40.49468 -3.56855 1972 ft 0 kts 89°